Dewpoint
-4 -4 -3 -3 -3 -3 -3 -4 -6 -7 -2 -4 -3 -1 -2 -3 -3 -3 -4 -5 -6 -6 -6 -7 -8 -9 -9 -9 -8 -8 -8 -9 -11 -11 -11 -10 -10 -10 -10 -10 -10 -9 -9 -9
-6 -5 -5 -5 -5 -2 -2 -3 -3 -3 -4 -5 -7 -3 -2 -2 -2 -3 -4 -5 -6 -5 -6 -7 -9 -9 -9 -7 -7 -9 -12 -14 -14 -14 -14 -14 -14 -14 -13 -12 -11 -10 -10 -10
-6 -4 -6 -6 -7 -4 -4 -3 -4 -3 -6 -8 -7 -3 -2 -2 -3 -3 -3 -4 -5 -5 -6 -8 -8 -8 -6 -7 -10 -12 -13 -13 -12 -13 -13 -14 -14 -14 -14 -14 -13 -12 -11 -10
-3 -6 -9 -13 -7 -7 -5 -7 -4 -5 -6 -7 -8 -7 -5 -2 -3 -3 -2 -3 -4 -5 -6 -8 -8 -7 -6 -9 -12 -13 -13 -13 -13 -14 -15 -16 -18 -19 -20 -19 -19 -17 -14 -11
-3 -4 -9 -11 -7 -8 -6 -12 -7 -5 -6 -5 -5 -5 -4 -3 -2 -2 -2 -3 -5 -6 -8 -8 -7 -5 -7 -12 -13 -13 -13 -13 -14 -16 -19 -19 -18 -17 -18 -19 -20 -20 -16 -11
-3 -3 -5 -11 -9 -7 -11 -10 -9 -7 -7 -4 -4 -3 -4 -3 -2 -2 -4 -5 -6 -7 -7 -7 -5 -5 -10 -13 -13 -13 -13 -14 -17 -19 -18 -17 -18 -23 -28 -28 -27 -24 -22 -15
-0 -1 -3 -8 -7 -7 -10 -8 -8 -7 -7 -4 -4 -5 -6 -5 -5 -5 -6 -7 -7 -7 -7 -5 -5 -8 -13 -14 -14 -12 -14 -18 -19 -18 -20 -24 -27 -28 -27 -26 -25 -24 -24 -23
-1 -0 -1 -7 -7 -9 -11 -7 -7 -7 -5 -4 -4 -5 -5 -6 -6 -6 -6 -7 -7 -6 -6 -6 -9 -12 -14 -13 -13 -15 -18 -18 -19 -22 -24 -26 -27 -27 -26 -24 -24 -25 -25 -26
-3 -3 -8 -7 -8 -9 -8 -8 -7 -7 -7 -6 -5 -5 -6 -6 -6 -6 -6 -7 -7 -7 -8 -10 -12 -13 -12 -14 -17 -18 -18 -20 -22 -23 -25 -25 -25 -24 -25 -24 -23 -24 -24 -24
-4 -5 -5 -6 -8 -7 -8 -8 -8 -8 -7 -5 -5 -5 -6 -6 -6 -7 -7 -7 -7 -9 -11 -12 -12 -12 -16 -17 -18 -19 -21 -22 -24 -24 -24 -24 -23 -22 -21 -22 -22 -22 -22 -22
-5 -6 -6 -7 -6 -6 -6 -6 -6 -7 -7 -7 -4 -5 -6 -7 -7 -6 -7 -7 -9 -11 -12 -12 -14 -15 -16 -19 -21 -23 -25 -25 -24 -23 -22 -22 -22 -21 -20 -21 -19 -19 -20 -19
-7 -8 -8 -9 -9 -8 -6 -6 -6 -6 -6 -6 -6 -6 -6 -6 -6 -6 -7 -9 -11 -12 -13 -12 -13 -17 -21 -24 -26 -27 -27 -26 -26 -25 -23 -22 -21 -21 -20 -19 -19 -19 -17 -16
-9 -9 -9 -8 -8 -8 -8 -8 -6 -6 -6 -6 -6 -6 -6 -6 -6 -7 -9 -11 -11 -11 -12 -15 -20 -24 -26 -26 -26 -26 -25 -25 -25 -24 -23 -22 -21 -20 -19 -21 -19 -18 -17 -17
-9 -8 -7 -7 -7 -7 -8 -7 -6 -6 -6 -6 -6 -6 -6 -6 -7 -9 -11 -11 -12 -14 -13 -21 -25 -24 -24 -24 -24 -24 -24 -24 -24 -24 -23 -21 -19 -18 -18 -17 -16 -17 -18 -17
-8 -8 -7 -7 -7 -7 -6 -6 -7 -5 -5 -5 -6 -6 -7 -8 -10 -10 -9 -6 -6 -13 -23 -24 -23 -24 -23 -23 -23 -24 -24 -24 -24 -23 -22 -19 -18 -17 -16 -16 -16 -15 -15 -17
-6 -6 -6 -5 -4 -4 -6 -6 -6 -5 -5 -6 -8 -9 -10 -10 -8 -4 -7 -12 -21 -23 -22 -23 -24 -25 -23 -23 -23 -23 -23 -22 -21 -21 -19 -17 -16 -15 -15 -16 -16 -16 -17 -17
-4 -3 -4 -5 -5 -5 -6 -6 -6 -6 -7 -8 -9 -10 -8 -4 -3 -7 -16 -21 -21 -22 -24 -25 -26 -25 -24 -23 -23 -24 -22 -20 -18 -18 -17 -15 -15 -16 -16 -16 -16 -16 -16 -16
-3 -2 -3 -4 -4 -5 -5 -6 -6 -8 -9 -9 -7 -3 -5 -10 -16 -20 -20 -22 -24 -26 -26 -27 -25 -24 -23 -23 -22 -22 -22 -21 -19 -17 -15 -15 -15 -15 -15 -15 -15 -14 -14 -14
-4 -4 -4 -5 -5 -5 -6 -7 -8 -8 -5 -3 -5 -11 -18 -19 -19 -22 -22 -23 -24 -24 -25 -23 -23 -23 -23 -23 -21 -20 -19 -19 -18 -16 -14 -15 -15 -14 -14 -14 -14 -13 -13 -10
-4 -4 -5 -5 -6 -6 -7 -7 -4 -3 -7 -15 -19 -20 -21 -21 -19 -19 -21 -22 -22 -22 -20 -19 -19 -21 -22 -22 -22 -21 -19 -18 -17 -16 -15 -14 -14 -14 -13 -13 -12 -11 -10 -9
-5 -6 -6 -6 -6 -6 -3 -4 -6 -15 -18 -18 -17 -16 -15 -14 -13 -12 -13 -15 -17 -17 -17 -17 -17 -19 -20 -21 -20 -20 -19 -19 -18 -15 -12 -12 -12 -11 -11 -12 -11 -10 -8 -9
-5 -4 -3 -3 -4 -7 -12 -17 -18 -17 -16 -13 -11 -10 -10 -10 -11 -13 -15 -15 -15 -15 -16 -18 -19 -19 -19 -18 -17 -16 -16 -16 -15 -14 -12 -11 -9 -9 -8 -8 -9 -9 -9 -9
-3 -8 -12 -14 -17 -17 -16 -14 -12 -10 -11 -11 -11 -12 -13 -14 -14 -14 -14 -15 -16 -19 -19 -20 -19 -17 -16 -15 -14 -14 -14 -13 -12 -11 -9 -8 -8 -8 -8 -9 -8 -8 -9 -10
-11 -12 -14 -16 -17 -17 -17 -16 -14 -13 -14 -14 -14 -13 -13 -14 -15 -17 -19 -20 -19 -19 -18 -19 -18 -16 -14 -14 -13 -12 -11 -11 -11 -9 -8 -8 -8 -9 -9 -9 -10 -10 -10 -10
-15 -15 -16 -16 -15 -16 -15 -15 -15 -14 -13 -13 -15 -18 -19 -19 -18 -20 -19 -19 -19 -17 -17 -18 -16 -14 -13 -12 -12 -11 -11 -10 -9 -9 -8 -8 -8 -9 -9 -10 -10 -10 -10 -10
-13 -14 -14 -13 -13 -13 -14 -14 -15 -16 -17 -18 -17 -17 -19 -19 -19 -19 -18 -17 -15 -15 -15 -15 -14 -13 -13 -12 -11 -11 -11 -10 -8 -8 -8 -8 -8 -8 -8 -9 -9 -10 -11 -11
-16 -15 -15 -15 -16 -16 -16 -15 -15 -15 -15 -15 -16 -19 -19 -18 -17 -15 -15 -15 -14 -14 -14 -14 -14 -13 -12 -12 -12 -11 -11 -10 -9 -9 -9 -8 -8 -8 -8 -9 -9 -10 -11 -10
Wind_Speed
5 6 5 6 5 7 8 5 5 4 7 6 8 12 26 31 31 27 25 23 20 18 13 10 8 7 5 4 3 3 3 4 5 7 8 10 10 11 12 13 14 14 15 14
4 3 6 6 8 9 9 6 9 5 16 9 7 18 15 27 32 31 29 27 24 19 16 13 11 9 7 5 4 3 2 1 3 5 7 8 9 11 12 13 13 14 15 16
4 3 4 8 13 15 6 6 8 9 10 6 7 13 26 33 36 35 31 28 26 22 17 13 10 8 7 6 5 4 2 2 4 5 7 8 9 11 12 13 14 15 15 16
3 3 4 6 3 3 11 7 12 5 5 9 10 16 21 27 37 33 28 27 25 21 17 14 12 10 9 8 6 5 3 3 4 5 6 8 10 12 13 15 16 17 16 16
3 3 7 4 3 6 7 7 9 13 6 7 8 8 6 15 25 29 27 24 22 18 16 14 12 11 9 8 7 6 5 5 6 7 8 10 12 15 17 18 18 18 17 17
2 3 6 4 3 3 2 5 3 6 9 11 9 3 4 17 19 23 22 20 19 17 15 13 12 11 10 9 8 7 5 5 6 8 11 14 16 18 19 19 18 18 17 16
4 4 8 7 6 6 2 5 3 3 8 22 6 9 8 19 20 21 21 19 18 15 13 12 11 11 10 9 8 7 6 6 8 10 13 15 15 16 16 16 16 16 16 15
3 3 8 10 5 6 5 3 3 4 6 22 19 8 11 21 23 22 20 18 16 13 12 12 11 11 9 8 8 7 7 8 10 12 13 14 15 16 16 16 17 17 18 17
10 7 4 22 6 15 5 5 7 7 9 12 16 15 18 22 22 20 18 16 14 13 12 12 11 11 9 8 8 8 9 11 13 14 14 15 16 16 17 17 19 19 21 21
2 6 13 15 24 15 15 15 11 10 10 13 18 19 20 21 21 20 19 17 15 14 13 13 11 9 8 8 9 10 12 14 15 15 16 15 16 16 18 18 20 21 21 22
5 7 8 13 21 27 21 17 15 14 15 15 20 22 22 22 21 19 18 16 15 13 12 11 10 9 9 10 11 12 15 16 16 17 18 19 19 19 19 18 20 22 21 22
7 12 9 8 7 15 24 25 21 19 18 20 21 22 23 22 20 19 17 16 14 12 11 10 10 9 9 10 12 15 17 18 18 19 19 20 22 22 19 21 20 20 20 22
24 23 20 16 15 13 13 17 20 19 19 20 20 20 20 20 19 16 15 14 13 10 10 9 10 10 9 12 14 16 18 18 19 19 20 21 22 24 28 24 23 23 22 23
33 28 15 20 13 12 14 15 17 17 17 16 16 18 18 19 18 17 14 12 11 9 10 12 12 11 10 13 16 17 18 19 21 22 22 23 23 24 26 28 28 27 23 25
25 24 22 18 17 14 14 16 19 20 18 17 17 18 18 18 17 15 12 10 11 13 13 12 14 12 12 15 17 19 20 21 22 23 23 23 23 24 25 25 26 28 29 28
22 20 20 22 24 21 20 20 21 22 21 20 20 19 18 16 13 11 10 13 14 14 14 15 15 12 14 17 19 20 21 22 23 24 24 23 22 23 24 25 27 30 33 35
9 13 18 20 20 21 22 20 18 17 17 17 17 17 15 11 10 12 13 12 14 16 16 16 15 15 17 19 22 23 24 24 23 25 25 25 25 26 27 29 32 34 37 38
20 21 19 20 20 20 19 17 15 16 18 17 14 10 10 12 12 12 12 13 16 18 17 16 18 19 21 21 22 24 26 28 28 28 28 28 28 29 30 32 35 37 39 40
12 12 11 12 13 15 16 15 15 15 13 11 12 12 11 11 11 12 13 16 18 21 18 18 19 21 22 21 21 24 26 28 30 31 30 30 30 31 33 35 37 37 37 32
7 9 8 6 8 11 14 15 14 11 12 11 9 9 9 8 9 12 15 20 21 21 22 23 23 24 22 22 22 25 27 28 30 32 32 32 33 35 36 37 37 35 30 31
1 3 5 6 10 10 10 9 12 12 10 8 8 9 12 15 17 19 22 26 27 24 24 26 26 26 23 23 23 25 27 30 31 32 32 33 34 35 37 37 34 31 30 33
2 5 6 6 7 8 10 11 10 8 8 11 14 17 20 24 24 25 26 29 30 26 26 27 25 22 22 23 27 29 31 33 32 31 31 31 32 33 32 32 32 29 29 30
3 3 4 5 6 6 7 9 10 13 17 19 21 22 24 26 27 28 33 31 28 25 24 25 24 23 24 27 30 32 33 32 31 30 30 30 30 29 28 28 28 29 33 34
4 4 5 7 10 12 15 16 18 20 21 22 25 24 25 26 28 26 25 26 26 25 27 28 28 27 26 29 30 30 31 31 30 29 29 27 27 26 25 27 30 31 32 33
8 9 10 12 15 17 19 20 23 25 25 26 24 21 21 22 26 30 28 29 29 29 30 30 27 26 26 27 28 29 29 27 27 26 25 25 24 23 25 26 27 28 27 28
15 16 17 18 19 20 21 20 22 22 21 23 26 27 27 27 28 29 29 29 29 28 28 28 27 24 23 25 26 27 26 25 24 24 23 21 23 26 28 29 29 28 26 25
15 15 16 17 15 16 18 21 23 26 26 28 31 32 31 30 28 28 27 27 26 25 25 25 24 24 24 25 26 26 25 24 23 22 22 24 25 27 29 30 29 26 24 23
Wind_Direction
256 240 209 211 210 186 200 202 179 272 215 257 212 197 198 194 190 192 192 191 196 201 206 218 227 235 242 251 270 303 328 348 1 8 9 3 360 359 356 351 347 342 334 328
281 288 243 263 241 221 220 219 253 248 265 212 217 209 200 200 195 197 197 199 202 205 213 220 224 226 228 226 225 229 253 341 13 6 3 358 358 359 357 355 352 350 344 339
260 335 328 289 231 211 197 209 187 203 227 169 209 202 202 204 203 204 202 200 204 211 216 219 219 216 215 219 223 218 238 321 343 346 347 348 349 347 345 346 345 344 342 339
254 3 247 243 169 187 217 238 219 259 210 204 215 223 225 216 207 206 203 202 205 208 211 212 212 211 215 217 220 225 256 296 313 323 329 335 337 337 336 335 334 333 332 330
202 206 293 285 211 179 176 274 211 227 206 210 184 169 212 213 216 212 205 206 206 207 206 208 210 211 216 218 221 228 255 282 304 316 324 326 326 326 326 324 322 321 322 323
147 212 235 236 178 163 143 287 184 185 205 175 168 172 246 198 192 194 197 198 200 200 206 210 210 213 216 219 224 234 262 284 301 311 319 322 324 324 324 323 323 321 318 317
203 242 285 248 164 145 145 247 195 220 210 182 190 207 227 188 185 191 193 193 196 202 208 210 213 216 218 222 232 248 268 288 304 310 312 314 319 324 325 324 323 321 320 324
154 193 268 162 114 177 210 172 212 205 195 196 208 207 190 183 182 185 188 192 198 206 208 211 213 215 219 231 244 258 275 289 298 306 312 316 317 320 321 320 320 321 322 323
186 210 242 190 211 211 216 224 213 219 219 212 208 187 181 183 188 192 197 200 205 209 209 212 215 219 227 239 251 266 282 294 301 305 309 312 314 314 316 315 317 320 321 323
145 232 235 239 227 243 234 235 235 230 232 222 212 198 193 191 191 196 199 202 202 203 207 212 217 226 239 251 267 283 291 293 298 303 305 308 309 312 312 312 312 316 319 320
257 282 272 264 244 243 237 233 239 236 232 232 215 208 207 203 202 203 203 200 200 203 206 211 219 232 249 267 279 286 290 298 305 307 307 306 305 308 308 307 309 313 316 318
245 228 228 238 269 249 239 241 241 242 229 221 221 220 214 211 209 205 203 201 202 204 207 215 227 243 266 283 288 290 292 298 302 302 302 302 302 300 296 300 299 300 307 313
251 267 259 261 257 244 243 250 241 235 237 231 223 222 216 210 205 202 200 202 203 210 223 236 251 261 278 283 283 287 293 297 298 299 301 303 302 302 303 297 290 294 295 299
251 255 248 246 247 252 247 242 237 234 231 231 230 215 212 204 196 199 199 200 207 222 243 253 263 274 280 278 283 289 292 295 297 300 300 300 301 300 299 298 297 295 292 297
252 254 248 258 263 250 248 260 238 227 220 213 209 208 198 194 192 188 196 222 232 236 246 259 269 278 279 282 287 291 294 296 295 294 295 296 297 298 298 297 296 298 301 301
251 248 246 250 259 258 245 224 219 215 215 205 195 190 187 184 184 212 215 230 239 248 258 265 272 284 279 281 285 287 290 292 292 293 293 294 295 295 297 297 298 299 300 303
223 245 247 248 248 238 225 224 225 220 199 193 186 181 182 227 212 216 234 249 262 268 270 274 283 283 282 283 288 291 291 290 290 289 289 290 290 292 295 297 299 302 303 304
264 263 267 263 254 232 220 215 209 197 190 182 190 214 205 219 233 245 259 264 267 271 276 286 289 289 288 290 291 290 288 288 288 287 286 285 287 289 292 296 300 303 304 302
243 251 260 249 236 221 215 200 186 181 200 201 198 211 223 241 261 272 274 274 275 281 290 295 293 288 288 291 291 290 289 289 288 286 285 285 286 288 292 297 300 301 306 304
249 255 248 221 199 198 186 181 208 190 196 199 209 233 254 273 287 289 289 285 285 291 299 300 296 290 290 288 287 287 290 292 291 288 285 284 286 290 293 296 298 299 300 301
215 208 200 187 169 183 200 196 194 193 195 220 249 270 286 291 295 300 299 297 294 299 295 293 291 285 281 281 284 287 291 292 290 288 287 287 289 291 292 293 295 297 297 297
198 223 235 220 203 196 192 195 201 219 245 266 277 284 289 291 292 293 290 289 298 300 294 290 288 280 278 282 285 291 294 294 292 289 287 288 289 291 292 294 298 300 298 298
273 260 242 227 218 216 221 237 254 270 278 282 285 286 287 290 291 291 293 298 299 297 294 293 294 286 279 281 287 292 294 294 292 290 288 288 289 292 295 298 298 294 292 296
318 298 278 262 257 259 263 268 274 277 281 286 288 290 290 290 289 287 289 290 292 293 290 288 286 284 285 285 287 290 291 290 288 287 286 289 291 292 294 295 295 298 298 298
298 288 281 277 274 274 277 281 283 283 286 287 289 291 292 290 287 291 290 289 288 287 285 285 286 285 283 284 286 287 287 284 284 285 286 286 287 289 293 299 302 303 301 299
302 297 293 292 291 292 293 293 290 290 290 292 294 295 293 292 290 290 291 291 291 291 288 287 286 284 284 286 287 286 283 282 283 281 279 280 286 291 294 296 299 303 301 300
306 304 302 299 300 303 300 296 293 291 291 292 293 293 295 294 295 295 295 297 297 294 291 289 286 286 285 287 289 288 284 280 281 282 283 285 287 291 293 293 298 298 295 297
Height
1513 1511 1509 1506 1506 1512 1518 1510 1511 1501 1506 1492 1491 1490 1488 1490 1497 1502 1505 1509 1511 1513 1516 1517 1518 1519 1519 1519 1519 1518 1517 1516 1515 1514 1512 1512 1509 1506 1504 1502 1500 1497 1494 1491
1513 1508 1510 1507 1505 1504 1506 1504 1504 1501 1493 1484 1483 1486 1490 1491 1494 1496 1499 1503 1506 1509 1511 1512 1514 1515 1515 1515 1514 1514 1514 1513 1513 1512 1510 1509 1507 1505 1503 1501 1499 1496 1492 1489
1516 1509 1509 1509 1491 1491 1492 1489 1486 1495 1474 1476 1479 1479 1478 1482 1486 1488 1493 1498 1501 1505 1508 1510 1511 1512 1512 1513 1512 1512 1512 1512 1511 1511 1509 1507 1505 1503 1501 1499 1496 1493 1490 1487
1518 1513 1509 1480 1479 1480 1483 1478 1479 1474 1472 1471 1471 1473 1475 1477 1480 1485 1490 1493 1498 1501 1504 1506 1507 1508 1509 1509 1510 1510 1510 1510 1509 1508 1506 1505 1503 1501 1499 1496 1494 1491 1488 1486
1514 1520 1496 1470 1479 1480 1480 1470 1466 1469 1471 1471 1472 1473 1473 1475 1478 1483 1487 1491 1495 1498 1500 1502 1503 1504 1506 1507 1507 1508 1508 1508 1507 1506 1504 1502 1500 1498 1495 1493 1490 1488 1486 1483
1522 1514 1499 1472 1472 1474 1475 1478 1463 1464 1466 1469 1473 1479 1474 1473 1477 1482 1487 1490 1493 1496 1497 1499 1501 1502 1503 1504 1505 1505 1505 1505 1504 1502 1501 1499 1497 1494 1491 1489 1487 1484 1482 1480
1515 1513 1495 1472 1471 1473 1479 1473 1463 1462 1463 1466 1469 1469 1470 1472 1476 1481 1484 1488 1490 1492 1494 1496 1498 1499 1500 1501 1502 1502 1502 1501 1501 1499 1498 1496 1493 1490 1488 1486 1484 1481 1479 1476
1512 1511 1501 1467 1473 1475 1464 1461 1462 1462 1463 1464 1466 1467 1468 1471 1475 1479 1482 1484 1487 1489 1491 1493 1495 1496 1497 1498 1499 1499 1499 1498 1497 1496 1494 1492 1489 1487 1484 1482 1479 1477 1474 1472
1484 1477 1462 1461 1459 1459 1460 1460 1460 1461 1461 1462 1464 1466 1467 1469 1472 1474 1478 1482 1484 1486 1488 1490 1492 1493 1494 1494 1495 1495 1495 1494 1493 1491 1489 1488 1486 1484 1481 1478 1475 1473 1470 1466
1470 1456 1457 1458 1458 1458 1457 1457 1458 1459 1460 1461 1461 1462 1465 1466 1469 1472 1474 1476 1479 1482 1485 1487 1489 1490 1491 1491 1491 1491 1491 1490 1488 1487 1486 1484 1482 1479 1477 1475 1472 1469 1466 1463
1463 1456 1454 1453 1453 1453 1454 1455 1455 1455 1456 1458 1460 1460 1462 1465 1467 1469 1472 1474 1476 1479 1481 1484 1486 1487 1487 1486 1487 1486 1485 1484 1483 1482 1481 1479 1477 1475 1472 1471 1468 1465 1462 1459
1450 1448 1447 1446 1446 1448 1449 1449 1450 1452 1453 1455 1457 1458 1460 1462 1465 1467 1469 1472 1474 1477 1479 1481 1482 1483 1483 1483 1482 1481 1480 1479 1478 1476 1475 1473 1471 1469 1469 1465 1464 1462 1459 1455
1440 1441 1441 1442 1444 1444 1445 1446 1447 1447 1449 1451 1453 1456 1458 1461 1464 1466 1469 1471 1473 1475 1477 1478 1478 1479 1478 1477 1476 1476 1474 1474 1472 1471 1469 1467 1465 1463 1459 1459 1457 1454 1453 1450
1436 1437 1437 1437 1438 1441 1441 1442 1444 1446 1448 1449 1451 1453 1456 1458 1461 1463 1466 1467 1469 1470 1473 1474 1474 1475 1474 1472 1470 1470 1469 1467 1465 1463 1462 1460 1458 1456 1454 1450 1446 1446 1446 1444
1429 1429 1429 1432 1433 1435 1436 1438 1439 1441 1443 1445 1447 1449 1452 1454 1457 1460 1462 1464 1466 1467 1467 1467 1467 1468 1468 1467 1465 1463 1462 1461 1459 1457 1455 1453 1451 1449 1448 1445 1442 1438 1435 1435
1423 1423 1424 1424 1426 1428 1429 1430 1432 1434 1436 1439 1441 1445 1448 1451 1454 1456 1458 1460 1461 1462 1461 1461 1461 1463 1462 1461 1459 1457 1456 1454 1452 1450 1448 1446 1444 1442 1441 1438 1435 1431 1427 1425
1420 1422 1422 1421 1421 1423 1424 1427 1430 1433 1437 1440 1442 1445 1447 1449 1450 1453 1455 1457 1457 1457 1457 1457 1456 1456 1455 1454 1452 1450 1448 1446 1445 1442 1440 1438 1437 1435 1433 1430 1427 1423 1419 1416
1418 1418 1418 1419 1418 1420 1423 1425 1427 1431 1434 1437 1441 1444 1445 1447 1448 1449 1450 1450 1451 1451 1452 1452 1451 1449 1448 1447 1445 1442 1440 1438 1436 1434 1432 1430 1429 1426 1424 1421 1418 1413 1409 1405
1415 1416 1416 1416 1417 1417 1421 1423 1427 1431 1434 1435 1437 1440 1442 1444 1445 1445 1445 1444 1444 1444 1445 1445 1443 1441 1440 1439 1437 1434 1432 1429 1427 1425 1423 1421 1419 1417 1414 1412 1408 1404 1400 1397
1414 1416 1417 1413 1417 1418 1420 1424 1425 1427 1431 1434 1436 1438 1440 1440 1440 1439 1438 1436 1436 1437 1437 1436 1434 1432 1431 1430 1429 1426 1424 1421 1418 1416 1414 1411 1409 1407 1404 1401 1398 1394 1392 1390
1416 1417 1418 1418 1419 1421 1421 1423 1425 1427 1430 1432 1433 1435 1436 1436 1435 1434 1432 1429 1428 1430 1429 1427 1425 1424 1423 1422 1420 1418 1415 1412 1410 1407 1404 1402 1400 1397 1394 1391 1388 1386 1384 1381
1417 1419 1418 1419 1421 1422 1422 1424 1425 1427 1429 1429 1429 1430 1429 1428 1427 1426 1425 1423 1420 1421 1418 1416 1415 1414 1414 1413 1410 1408 1405 1402 1400 1397 1394 1393 1391 1387 1384 1382 1379 1377 1375 1372
1418 1420 1420 1421 1423 1423 1423 1424 1424 1424 1424 1423 1423 1423 1422 1420 1419 1417 1413 1413 1412 1411 1409 1406 1406 1405 1405 1403 1401 1398 1395 1392 1389 1387 1385 1384 1381 1379 1377 1374 1372 1370 1367 1364
1420 1419 1420 1421 1421 1420 1420 1420 1419 1418 1416 1416 1415 1415 1414 1411 1409 1409 1407 1404 1403 1402 1400 1399 1398 1397 1395 1393 1390 1387 1385 1382 1380 1378 1376 1375 1373 1371 1369 1367 1364 1361 1357 1354
1418 1418 1417 1417 1415 1415 1414 1413 1412 1410 1409 1408 1407 1407 1406 1405 1402 1398 1398 1396 1394 1392 1390 1389 1388 1386 1384 1382 1380 1378 1375 1373 1371 1369 1368 1366 1365 1363 1361 1358 1355 1352 1349 1346
1414 1413 1412 1411 1409 1408 1407 1406 1403 1402 1401 1399 1398 1398 1396 1395 1393 1390 1388 1386 1384 1382 1380 1378 1377 1376 1374 1372 1370 1368 1366 1364 1363 1361 1360 1358 1357 1355 1353 1351 1348 1345 1342 1339
1410 1409 1407 1405 1405 1404 1402 1400 1398 1395 1395 1393 1389 1388 1386 1384 1382 1380 1378 1376 1374 1372 1370 1368 1367 1365 1364 1362 1360 1358 1356 1355 1354 1353 1352 1350 1349 1347 1345 1342 1339 1337 1334 1332